{"data":{"norad_id":67181,"epoch":"2026-05-25T05:32:08.471904Z","epoch_age_seconds":49000,"freshness":"FRESH","line1":"1 67181U 25303U   26145.23065361  .00011712  00000+0  43449-3 0  9998","line2":"2 67181  43.0007 238.2288 0002009 266.3429  93.7193 15.27576592 24440","mean_motion":15.27576592,"eccentricity":0.0002009,"inclination_deg":43.0007,"raan_deg":238.2288,"arg_perigee_deg":266.3429,"mean_anomaly_deg":93.7193,"bstar":0.00043449,"rev_number":2444,"period_min":94.266959021325,"perigee_km":481.68088649981,"apogee_km":484.43771517349,"semimajor_km":6861.1963008366,"source":"CELESTRAK","updated_at":"2026-05-25T13:38:21.483583Z"}}